This is the latest recevied weather packets stored in our database for station/object N3EG. If no packets are shown the sender has not sent any weather packets the latest 10 day(s).
| Time | Temp. | Humidity | Pressure | Rain* | Wind** | Luminosity | Snow |
|---|---|---|---|---|---|---|---|
| 1788307803 | 17.78° C | 86% | 1011.3 hPa | 0 mm | - | - | - |
| 1788307503 | 18.33° C | 85% | 1011.3 hPa | 0 mm | - | - | - |
| 1788307202 | 18.33° C | 84% | 1011.2 hPa | 0 mm | - | - | - |
| 1788306903 | 18.33° C | 84% | 1011.3 hPa | 0 mm | - | - | - |
| 1788306603 | 18.89° C | 83% | 1011.3 hPa | 0 mm | - | - | - |
| 1788306302 | 19.44° C | 81% | 1011.3 hPa | 0 mm | - | - | - |
| 1788306003 | 19.44° C | 78% | 1011.3 hPa | 0 mm | - | - | - |
| 1788305703 | 19.44° C | 80% | 1011.3 hPa | 0 mm | - | - | - |
| 1788305402 | 19.44° C | 80% | 1011.3 hPa | 0 mm | - | - | - |
| 1788305103 | 20° C | 79% | 1011.3 hPa | 0 mm | - | - | - |
| 1788304803 | 20° C | 78% | 1011.3 hPa | 0 mm | - | - | - |
| 1788304502 | 20° C | 77% | 1011.3 hPa | 0 mm | - | - | - |
| 1788304203 | 20° C | 77% | 1011.3 hPa | 0 mm | - | - | - |
| 1788303902 | 19.44° C | 77% | 1011.3 hPa | 0 mm | - | - | - |
| 1788303602 | 19.44° C | 77% | 1011.3 hPa | 0 mm | - | - | - |
| 1788303303 | 19.44° C | 79% | 1011.3 hPa | 0 mm | - | - | - |
| 1788303003 | 19.44° C | 78% | 1011.4 hPa | 0 mm | - | - | - |
| 1788302702 | 19.44° C | 79% | 1011.5 hPa | 0 mm | - | - | - |
| 1788302403 | 19.44° C | 81% | 1011.4 hPa | 0 mm | - | - | - |
| 1788302103 | 19.44° C | 81% | 1011.4 hPa | 0 mm | - | - | - |
| 1788301802 | 19.44° C | 81% | 1011.5 hPa | 0 mm | - | - | - |
| 1788301507 | 19.44° C | 80% | 1011.4 hPa | 0 mm | - | - | - |
| 1788301202 | 19.44° C | 80% | 1011.4 hPa | 0 mm | - | - | - |
| 1788300902 | 19.44° C | 80% | 1011.4 hPa | 0 mm | - | - | - |
| 1788300603 | 19.44° C | 81% | 1011.3 hPa | 0 mm | - | - | - |
* Rain latest hour (hover to see other rain measurements)
** Current wind speed in m/s (hover to see current wind gust speed)